Time,TemperatureF,DewpointF,PressureIn,WindDirection,WindDirectionDegrees,WindSpeedMPH,WindSpeedGustMPH,Humidity,HourlyPrecipIn,Conditions,Clouds,dailyrainin,SoftwareType,DateUTC
2013-03-07 13:33:00,33.8,23.0,28.21,North,0,8.0,-999.0,64,-99.99,,,0.00,meteohub,2013-03-07 18:33:00,
2013-03-07 13:34:00,33.8,23.0,28.20,North,0,15.0,-999.0,64,-99.99,,,0.00,meteohub,2013-03-07 18:34:00,
2013-03-07 13:39:00,33.6,23.2,28.20,NW,315,10.0,-999.0,65,-99.99,,,0.00,meteohub,2013-03-07 18:39:00,
2013-03-07 13:44:00,33.6,23.2,28.20,North,0,8.0,15.0,65,0.00,,,0.00,meteohub,2013-03-07 18:44:00,
2013-03-07 13:50:00,33.8,23.0,28.20,North,0,11.0,15.0,64,0.00,,,0.00,meteohub,2013-03-07 18:50:00,
2013-03-07 13:55:00,33.8,23.0,28.19,North,0,4.0,15.0,64,0.00,,,0.00,meteohub,2013-03-07 18:55:00,
2013-03-07 14:00:00,34.0,23.0,28.19,North,0,14.0,14.0,64,0.00,,,0.00,meteohub,2013-03-07 19:00:00,
2013-03-07 14:05:00,33.8,23.0,28.19,NW,315,7.0,14.0,64,0.00,,,0.00,meteohub,2013-03-07 19:05:00,
2013-03-07 14:10:00,34.3,23.4,28.19,North,0,9.0,15.0,64,0.00,,,0.00,meteohub,2013-03-07 19:10:00,
2013-03-07 14:15:00,34.5,23.5,28.19,North,0,10.0,15.0,64,0.00,,,0.00,meteohub,2013-03-07 19:15:00,
2013-03-07 14:20:00,35.2,23.9,28.19,NW,315,10.0,15.0,63,0.00,,,0.00,meteohub,2013-03-07 19:20:00,
2013-03-07 14:27:00,35.2,23.5,28.19,North,0,13.0,15.0,62,0.00,,,0.00,meteohub,2013-03-07 19:27:00,
2013-03-07 14:32:00,35.6,23.5,28.19,North,0,11.0,15.0,61,0.00,,,0.00,meteohub,2013-03-07 19:32:00,
2013-03-07 14:37:00,35.4,23.4,28.19,NW,315,11.0,14.0,61,0.00,,,0.00,meteohub,2013-03-07 19:37:00,
2013-03-07 14:42:00,35.4,22.5,28.19,NW,315,8.0,14.0,59,0.00,,,0.00,meteohub,2013-03-07 19:42:00,
2013-03-07 14:47:00,35.4,22.5,28.19,NW,315,11.0,13.0,59,0.00,,,0.00,meteohub,2013-03-07 19:47:00,
2013-03-07 14:52:00,35.4,22.1,28.19,North,0,9.0,13.0,58,0.00,,,0.00,meteohub,2013-03-07 19:52:00,
2013-03-07 14:57:00,35.2,21.9,28.19,North,0,13.0,13.0,58,0.00,,,0.00,meteohub,2013-03-07 19:57:00,
2013-03-07 15:02:00,35.2,21.9,28.19,NW,315,10.0,13.0,58,0.00,,,0.00,meteohub,2013-03-07 20:02:00,
2013-03-07 15:12:00,35.4,21.7,28.19,WNW,293,14.0,14.0,57,0.00,,,0.00,meteohub,2013-03-07 20:12:00,
2013-03-07 15:17:00,35.1,21.4,28.19,WNW,293,10.0,15.0,57,0.00,,,0.00,meteohub,2013-03-07 20:17:00,
2013-03-07 15:22:00,34.9,21.6,28.19,West,270,8.0,15.0,58,0.00,,,0.00,meteohub,2013-03-07 20:22:00,
2013-03-07 15:27:00,34.9,21.9,28.19,North,0,9.0,15.0,59,0.00,,,0.00,meteohub,2013-03-07 20:27:00,
2013-03-07 15:32:00,35.1,22.1,28.19,NW,315,8.0,14.0,59,0.00,,,0.00,meteohub,2013-03-07 20:32:00,
2013-03-07 15:37:00,35.1,22.1,28.20,NW,315,8.0,14.0,59,0.00,,,0.00,meteohub,2013-03-07 20:37:00,
2013-03-07 15:42:00,35.2,22.3,28.20,NW,315,8.0,12.0,59,0.00,,,0.00,meteohub,2013-03-07 20:42:00,
2013-03-07 15:47:00,35.1,22.1,28.19,NW,315,13.0,13.0,59,0.00,,,0.00,meteohub,2013-03-07 20:47:00,
2013-03-07 15:52:00,34.9,22.5,28.20,NW,315,8.0,13.0,60,0.00,,,0.00,meteohub,2013-03-07 20:52:00,
2013-03-07 15:57:00,34.9,22.5,28.20,North,0,11.0,13.0,60,0.00,,,0.00,meteohub,2013-03-07 20:57:00,
2013-03-07 16:02:00,35.2,23.2,28.19,NW,315,8.0,13.0,61,0.00,,,0.00,meteohub,2013-03-07 21:02:00,
2013-03-07 16:07:00,35.1,22.1,28.20,North,0,6.0,12.0,59,0.00,,,0.00,meteohub,2013-03-07 21:07:00,
2013-03-07 16:15:00,35.1,21.7,28.20,NW,315,9.0,14.0,58,0.00,,,0.00,meteohub,2013-03-07 21:15:00,
2013-03-07 16:20:00,35.1,22.1,28.20,North,0,5.0,13.0,59,0.00,,,0.00,meteohub,2013-03-07 21:20:00,
2013-03-07 16:26:00,35.1,22.1,28.20,NE,45,5.0,11.0,59,0.00,,,0.00,meteohub,2013-03-07 21:26:00,
2013-03-07 16:31:00,35.1,22.1,28.20,NW,315,11.0,11.0,59,0.00,,,0.00,meteohub,2013-03-07 21:31:00,
2013-03-07 16:36:00,34.9,21.9,28.20,North,0,11.0,11.0,59,0.00,,,0.00,meteohub,2013-03-07 21:36:00,
2013-03-07 16:41:00,34.9,21.6,28.20,NW,315,7.0,15.0,58,0.00,,,0.00,meteohub,2013-03-07 21:41:00,
2013-03-07 16:46:00,34.9,21.9,28.20,North,0,9.0,15.0,59,0.00,,,0.00,meteohub,2013-03-07 21:46:00,
2013-03-07 16:52:00,34.9,21.6,28.20,NW,315,9.0,15.0,58,0.00,,,0.00,meteohub,2013-03-07 21:52:00,
2013-03-07 16:57:00,34.9,21.9,28.21,NW,315,5.0,14.0,59,0.00,,,0.00,meteohub,2013-03-07 21:57:00,
2013-03-07 17:02:00,34.9,21.9,28.21,NW,315,11.0,14.0,59,0.00,,,0.00,meteohub,2013-03-07 22:02:00,
2013-03-07 17:07:00,34.7,21.0,28.21,North,0,6.0,15.0,57,0.00,,,0.00,meteohub,2013-03-07 22:07:00,
2013-03-07 17:12:00,34.9,21.6,28.21,NW,315,8.0,17.0,58,0.00,,,0.00,meteohub,2013-03-07 22:12:00,
2013-03-07 17:17:00,34.7,21.4,28.21,NNW,338,8.0,17.0,58,0.00,,,0.00,meteohub,2013-03-07 22:17:00,
2013-03-07 17:23:00,34.7,21.4,28.21,NW,315,6.0,17.0,58,0.00,,,0.00,meteohub,2013-03-07 22:23:00,
2013-03-07 17:28:00,34.5,21.2,28.21,NW,315,7.0,11.0,58,0.00,,,0.00,meteohub,2013-03-07 22:28:00,
2013-03-07 17:33:00,34.5,21.2,28.21,North,0,6.0,11.0,58,0.00,,,0.00,meteohub,2013-03-07 22:33:00,
2013-03-07 17:38:00,34.5,21.2,28.22,NW,315,8.0,11.0,58,0.00,,,0.00,meteohub,2013-03-07 22:38:00,
2013-03-07 17:43:00,34.3,20.7,28.21,NW,315,10.0,10.0,57,0.00,,,0.00,meteohub,2013-03-07 22:43:00,
2013-03-07 17:48:00,34.3,20.7,28.22,NW,315,11.0,15.0,57,0.00,,,0.00,meteohub,2013-03-07 22:48:00,
2013-03-07 17:55:00,34.3,20.7,28.22,NW,315,11.0,15.0,57,0.00,,,0.00,meteohub,2013-03-07 22:55:00,
2013-03-07 18:00:00,34.2,20.1,28.22,NW,315,8.0,11.0,56,0.00,,,0.00,meteohub,2013-03-07 23:00:00,
2013-03-07 18:05:00,34.2,20.1,28.22,NW,315,7.0,11.0,56,0.00,,,0.00,meteohub,2013-03-07 23:05:00,
2013-03-07 18:10:00,34.2,20.1,28.23,West,270,4.0,11.0,56,0.00,,,0.00,meteohub,2013-03-07 23:10:00,
2013-03-07 18:17:00,34.0,19.9,28.23,NW,315,8.0,12.0,56,0.00,,,0.00,meteohub,2013-03-07 23:17:00,
2013-03-07 18:22:00,34.0,19.9,28.23,West,270,7.0,12.0,56,0.00,,,0.00,meteohub,2013-03-07 23:22:00,
2013-03-07 18:27:00,34.0,19.9,28.23,NW,315,9.0,9.0,56,0.00,,,0.00,meteohub,2013-03-07 23:27:00,
2013-03-07 18:32:00,34.0,19.9,28.23,North,0,4.0,10.0,56,0.00,,,0.00,meteohub,2013-03-07 23:32:00,
2013-03-07 18:37:00,33.8,20.1,28.23,West,270,4.0,10.0,57,0.00,,,0.00,meteohub,2013-03-07 23:37:00,
2013-03-07 18:42:00,33.8,20.1,28.23,NW,315,8.0,9.0,57,0.00,,,0.00,meteohub,2013-03-07 23:42:00,
2013-03-07 18:48:00,33.8,20.1,28.24,SW,225,4.0,8.0,57,0.00,,,0.00,meteohub,2013-03-07 23:48:00,
2013-03-07 18:53:00,33.8,20.1,28.24,West,270,4.0,8.0,57,0.00,,,0.00,meteohub,2013-03-07 23:53:00,
2013-03-07 18:58:00,33.8,20.1,28.24,SW,225,8.0,8.0,57,0.00,,,0.00,meteohub,2013-03-07 23:58:00,
2013-03-07 19:03:00,33.8,20.1,28.24,West,270,8.0,8.0,57,0.00,,,0.00,meteohub,2013-03-08 00:03:00,
2013-03-07 19:09:00,33.8,20.7,28.24,NW,315,9.0,11.0,58,0.00,,,0.00,meteohub,2013-03-08 00:09:00,
2013-03-07 19:14:00,33.6,20.8,28.24,NW,315,4.0,11.0,59,0.00,,,0.00,meteohub,2013-03-08 00:14:00,
2013-03-07 19:19:00,33.6,20.8,28.24,NW,315,2.0,11.0,59,0.00,,,0.00,meteohub,2013-03-08 00:19:00,
2013-03-07 19:24:00,33.4,21.0,28.24,NE,45,4.0,9.0,60,0.00,,,0.00,meteohub,2013-03-08 00:24:00,
2013-03-07 19:30:00,33.4,21.0,28.24,NW,315,3.0,5.0,60,0.00,,,0.00,meteohub,2013-03-08 00:30:00,
2013-03-07 19:35:00,33.4,21.0,28.24,NE,45,2.0,8.0,60,0.00,,,0.00,meteohub,2013-03-08 00:35:00,
2013-03-07 19:40:00,33.4,21.0,28.25,NW,315,2.0,8.0,60,0.00,,,0.00,meteohub,2013-03-08 00:40:00,
2013-03-07 19:45:00,33.4,21.0,28.24,SE,135,1.0,4.0,60,0.00,,,0.00,meteohub,2013-03-08 00:45:00,
2013-03-07 19:50:00,33.4,21.0,28.24,North,0,6.0,11.0,60,0.00,,,0.00,meteohub,2013-03-08 00:50:00,
2013-03-07 19:57:00,33.4,21.0,28.25,NE,45,4.0,11.0,60,0.00,,,0.00,meteohub,2013-03-08 00:57:00,
2013-03-07 20:02:00,33.4,21.0,28.25,North,0,7.0,11.0,60,0.00,,,0.00,meteohub,2013-03-08 01:02:00,
2013-03-07 20:07:00,33.4,21.0,28.25,North,0,7.0,7.0,60,0.00,,,0.00,meteohub,2013-03-08 01:07:00,
2013-03-07 20:12:00,33.4,21.0,28.25,SW,225,2.0,7.0,60,0.00,,,0.00,meteohub,2013-03-08 01:12:00,
2013-03-07 20:18:00,33.4,21.4,28.25,NW,315,2.0,7.0,61,0.00,,,0.00,meteohub,2013-03-08 01:18:00,
2013-03-07 20:25:00,33.4,21.4,28.24,East,90,4.0,7.0,61,0.00,,,0.00,meteohub,2013-03-08 01:25:00,
2013-03-07 20:31:00,33.3,21.2,28.24,South,180,4.0,11.0,61,0.00,,,0.00,meteohub,2013-03-08 01:31:00,
2013-03-07 20:36:00,33.3,21.2,28.25,West,270,2.0,11.0,61,0.00,,,0.00,meteohub,2013-03-08 01:36:00,
2013-03-07 20:41:00,33.3,21.7,28.24,NW,315,10.0,10.0,62,0.00,,,0.00,meteohub,2013-03-08 01:41:00,
2013-03-07 20:46:00,33.3,21.7,28.24,NW,315,4.0,10.0,62,0.00,,,0.00,meteohub,2013-03-08 01:46:00,
2013-03-07 20:51:00,33.1,21.6,28.24,NNW,338,4.0,10.0,62,0.00,,,0.00,meteohub,2013-03-08 01:51:00,
2013-03-07 20:56:00,32.9,21.4,28.24,East,90,3.0,10.0,62,0.00,,,0.00,meteohub,2013-03-08 01:56:00,
2013-03-07 21:01:00,32.9,21.4,28.24,NW,315,3.0,7.0,62,0.00,,,0.00,meteohub,2013-03-08 02:01:00,
2013-03-07 21:07:00,32.9,21.4,28.25,NW,315,3.0,7.0,62,0.00,,,0.00,meteohub,2013-03-08 02:07:00,
2013-03-07 21:12:00,32.9,21.7,28.25,NW,315,3.0,4.0,63,0.00,,,0.00,meteohub,2013-03-08 02:12:00,
2013-03-07 21:17:00,32.9,21.7,28.24,NE,45,2.0,5.0,63,0.00,,,0.00,meteohub,2013-03-08 02:17:00,
2013-03-07 21:23:00,32.9,21.7,28.25,NW,315,4.0,6.0,63,0.00,,,0.00,meteohub,2013-03-08 02:23:00,
2013-03-07 21:29:00,32.9,21.7,28.25,West,270,3.0,6.0,63,0.00,,,0.00,meteohub,2013-03-08 02:29:00,
2013-03-07 21:34:00,32.9,21.7,28.25,North,0,5.0,6.0,63,0.00,,,0.00,meteohub,2013-03-08 02:34:00,
2013-03-07 21:39:00,32.9,21.7,28.25,West,270,4.0,6.0,63,0.00,,,0.00,meteohub,2013-03-08 02:39:00,
2013-03-07 21:44:00,32.9,21.7,28.25,West,270,2.0,6.0,63,0.00,,,0.00,meteohub,2013-03-08 02:44:00,
2013-03-07 21:49:00,32.9,21.7,28.25,NW,315,2.0,6.0,63,0.00,,,0.00,meteohub,2013-03-08 02:49:00,
2013-03-07 21:56:00,32.9,21.7,28.25,NW,315,4.0,6.0,63,0.00,,,0.00,meteohub,2013-03-08 02:56:00,
2013-03-07 22:01:00,32.9,21.7,28.25,NW,315,8.0,8.0,63,0.00,,,0.00,meteohub,2013-03-08 03:01:00,
2013-03-07 22:06:00,32.9,21.7,28.25,NW,315,8.0,8.0,63,0.00,,,0.00,meteohub,2013-03-08 03:06:00,
2013-03-07 22:11:00,33.1,21.9,28.25,North,0,4.0,8.0,63,0.00,,,0.00,meteohub,2013-03-08 03:11:00,
2013-03-07 22:16:00,33.1,21.9,28.25,East,90,4.0,8.0,63,0.00,,,0.00,meteohub,2013-03-08 03:16:00,
2013-03-07 22:21:00,33.1,21.9,28.25,NW,315,6.0,8.0,63,0.00,,,0.00,meteohub,2013-03-08 03:21:00,
2013-03-07 22:26:00,33.3,22.1,28.25,North,0,4.0,6.0,63,0.00,,,0.00,meteohub,2013-03-08 03:26:00,
2013-03-07 22:31:00,33.3,22.1,28.25,North,0,4.0,6.0,63,0.00,,,0.00,meteohub,2013-03-08 03:31:00,
2013-03-07 22:37:00,33.3,22.1,28.25,NW,315,5.0,6.0,63,0.00,,,0.00,meteohub,2013-03-08 03:37:00,
2013-03-07 22:42:00,33.3,22.1,28.25,NW,315,6.0,8.0,63,0.00,,,0.00,meteohub,2013-03-08 03:42:00,
2013-03-07 22:47:00,33.3,22.1,28.25,SW,225,6.0,8.0,63,0.00,,,0.00,meteohub,2013-03-08 03:47:00,
2013-03-07 22:52:00,33.3,22.1,28.25,West,270,4.0,8.0,63,0.00,,,0.00,meteohub,2013-03-08 03:52:00,
2013-03-07 22:57:00,33.3,22.1,28.25,South,180,3.0,8.0,63,0.00,,,0.00,meteohub,2013-03-08 03:57:00,
2013-03-07 23:03:00,33.3,22.1,28.25,West,270,8.0,8.0,63,0.00,,,0.00,meteohub,2013-03-08 04:03:00,
2013-03-07 23:12:00,33.4,21.7,28.25,NW,315,4.0,9.0,62,0.00,,,0.00,meteohub,2013-03-08 04:12:00,
2013-03-07 23:17:00,33.4,21.4,28.25,NW,315,11.0,11.0,61,0.00,,,0.00,meteohub,2013-03-08 04:17:00,
2013-03-07 23:22:00,33.4,21.4,28.25,West,270,7.0,11.0,61,0.00,,,0.00,meteohub,2013-03-08 04:22:00,
2013-03-07 23:27:00,33.4,21.4,28.25,NNW,338,4.0,11.0,61,0.00,,,0.00,meteohub,2013-03-08 04:27:00,
2013-03-07 23:32:00,33.4,21.0,28.25,NW,315,6.0,11.0,60,0.00,,,0.00,meteohub,2013-03-08 04:32:00,
2013-03-07 23:37:00,33.4,21.0,28.25,NW,315,8.0,8.0,60,0.00,,,0.00,meteohub,2013-03-08 04:37:00,
2013-03-07 23:42:00,33.3,20.5,28.25,NW,315,2.0,7.0,59,0.00,,,0.00,meteohub,2013-03-08 04:42:00,
2013-03-07 23:48:00,33.3,20.5,28.24,North,0,2.0,8.0,59,0.00,,,0.00,meteohub,2013-03-08 04:48:00,
2013-03-07 23:53:00,33.3,20.5,28.24,NE,45,5.0,8.0,59,0.00,,,0.00,meteohub,2013-03-08 04:53:00,
2013-03-07 23:58:00,33.3,20.5,28.25,North,0,6.0,6.0,59,0.00,,,0.00,meteohub,2013-03-08 04:58:00,